Location: ?????????
(41.2286°N, 23.0068°E)
Time: 01:46:05
(UTC+00:00)

Meteor 1-24 Rocket - Pass Details

Date: 08 November 2025
Orbit: 788 x 926 km, 81.3° (Epoch: 07 December)

Event Time Altitude Azimuth Distance (km) Brightness Sun altitude
Rises 03:40:05 0° 200° (SSW) 3,505 6.8 -16.7°
Reaches altitude 10° 03:42:37 10° 204° (SSW) 2,552 6.0 -16.2°
Maximum altitude 03:48:19 56° 282° (WNW) 1,024 3.8 -15.2°
Drops below altitude 10° 03:53:51 10° 1° (N) 2,477 6.0 -14.2°
Sets 03:56:18 0° 6° (N) 3,395 6.8 -13.7°
